Zurück zum Katalog

NADEZHDA 6

AktivKommunikationSSO
NORAD 26384·PAYLOAD·🇷🇺 Russia

Gestartet Jun 28, 2000 von Plesetsk Cosmodrome

Loading…

Nächste Überflüge (nächste 24 Stunden)

TLE

AktuellSource: Space-Track

Epoche: Sep 14, 2026, 09:03 UTC

1 26384U 00033A   26257.37771498  .00000543  00000-0  95180-4 0  9996
2 26384  97.8531 229.4269 0014456  69.2917 290.9838 14.71461573401302

Verfolge NADEZHDA 6 in Echtzeit mit AllMySat

Download on the App Store